Other Public Products
Issued by NWS Grand Forks, ND

Home | Current Version | Previous Version | Text Only | Print | Product List | Glossary Off
Versions: 1 2 3 4 5 6 7 8 9 10 11 12 13 14 15 16 17 18 19 20 21 22 23 24 25 26 27 28 29 30 31 32 33 34 35 36 37 38 39 40 41 42 43 44 45 46 47 48 49 50

000
FPUS83 KFGF 180210
OPUFGF
PRAIRIE TO PINES WEATHER ROUNDUP
NATIONAL WEATHER SERVICE EASTERN NORTH DAKOTA/GRAND FORKS ND
900 PM CDT THU AUG 17 2017

 **SATELLITE DATA USED TO AUGMENT SKY COVER AT AUTOMATED STATIONS**
 *****  WEATHER ACROSS EASTERN NORTH DAKOTA  *****

CITY           SKY/WX    TMP DP  RH WIND       PRES   REMARKS
GRAND FORKS    FAIR      68  64  87 SE3       29.82R
GRAND FORKS AF PTCLDY    75  63  64 N2        29.88S
GRAND CITY NWS NOT AVBL
BUXTON           N/A     72  59  64 E3          N/A
DEVILS LAKE    FAIR      69  61  75 CALM      29.86S
FARGO          FAIR      66  62  87 NE3       29.83S
WAHPETON ARPT  FAIR      64  57  77 CALM      29.85R
$$

 *****  WEATHER ACROSS CENTRAL AND WESTERN NORTH DAKOTA  *****

CITY           SKY/WX    TMP DP  RH WIND       PRES   REMARKS
JAMESTOWN      FAIR      64  60  87 SE5       29.86R
BISMARCK       FAIR      72  59  63 S7        29.83R
MINOT          FAIR      71  56  58 E9        29.82R
MINOT AFB      FAIR      73  55  52 E9        29.81R
GARRISON         N/A     72  62  71 S3        29.81R
WILLISTON      FAIR      73  53  49 NW12      29.85S
DICKINSON      FAIR      71  46  40 W8        29.88R
HETTINGER      FAIR      72  50  45 N5        29.92R
$$

 *****  OTHER OBSERVATIONS NORTHEAST NORTH DAKOTA  *****

CITY           SKY/WX    TMP DP  RH WIND       PRES   REMARKS
WALHALLA       FAIR      66  66 100 CALM      29.83R
LANGDON        FAIR      66  66 100 CALM      29.87R
CAVALIER       FAIR      66  63  88 CALM      29.82S
GRAFTON        FAIR      66  66 100 CALM      29.84R
CANDO          FAIR      66  66 100 CALM      29.87S
FORT TOTTEN      N/A     66  56  70 CALM      29.95
ROLLA          FAIR      64  64 100 CALM      29.88S
RUGBY          FAIR      66  59  77 E8        29.84S
 ***** THE ABOVE OBSERVATIONS ARE NON NWS ARE NOT QUALITY
        CONTROLLED AND MAY MIS-REPORT RAIN FOR SNOW...
$$

 *****  OTHER OBSERVATIONS SOUTHEAST NORTH DAKOTA *****

CITY           SKY/WX    TMP DP  RH WIND       PRES   REMARKS
COOPERSTOWN    FAIR      66  63  88 CALM      29.87R
VALLEY CITY      N/A     66  63  88 CALM      29.87R
OAKES          NOT AVBL
GWINNER        CLEAR     66  64  94 CALM      29.86S
SHEYENNE NWR     N/A     68  65  89 CALM      29.95S
BUFFALO          N/A     68  59  73 NE8         N/A
WYNDMERE       NOT AVBL
 ***** THE ABOVE OBSERVATIONS ARE NON NWS ARE NOT QUALITY
       CONTROLLED AND MAY MIS-REPORT RAIN FOR SNOW...
$$

  *****  WEATHER ACROSS NORTHERN MINNESOTA  *****

CITY           SKY/WX    TMP DP  RH WIND       PRES   REMARKS
FLAG ISLAND    FAIR      70  59  68 CALM      29.80S
WARROAD        FAIR      64  61  88 W3        29.82S
ROSEAU         FAIR      66  61  82 CALM      29.82S
HALLOCK        FAIR      70  55  60 NW5       29.81S
THF RVR FALLS  FAIR      68  58  70 CALM      29.85R
HALSTAD        NOT AVBL
FOSSTON        FAIR      63  55  77 CALM      29.86R
BAUDETTE       FAIR      62  59  90 CALM      29.81S
WASKISH        FAIR      61  57  88 CALM      29.83S
CROOKSTON      FAIR      70  57  64 CALM      29.83S
$$
  *****  WEATHER ACROSS CENTRAL AND WEST MINNESOTA  *****

CITY           SKY/WX    TMP DP  RH WIND       PRES   REMARKS
BEMIDJI        FAIR      62  58  87 CALM      29.85S
PARK RAPIDS    FAIR      66  60  81 CALM      29.85S
WADENA         FAIR      63  63 100 CALM      29.85S
DETROIT LAKES  FAIR      68  61  77 CALM      29.87S
MOORHEAD       FAIR      68  63  83 CALM      29.85R
FERGUS FALLS   FAIR      66  61  82 N5        29.85R
ELBOW LAKE     FAIR      67  62  83 W3        29.86S HAZE
MORRIS MN      FAIR      66  63  88 NW3       29.85S
STAPLES        FAIR      63  57  82 CALM      29.85S
WHEATON        FAIR      66  61  82 CALM      29.88R
$$
  *****  WEATHER ELSEWHERE ACROSS MINNESOTA  *****

CITY           SKY/WX    TMP DP  RH WIND       PRES   REMARKS
DULUTH         CLOUDY    61  60  97 NW10      29.78R
INTRNTL FALLS  FOG       57  55  93 CALM      29.81S VSB 3/4
ELY            CLOUDY    61  59  94 NW6       29.78S
CLOQUET        CLOUDY    63  57  82 NW6       29.80R
BRAINERD       FAIR      63  57  81 NW5       29.84S
HIBBING        MOCLDY    60  58  92 N6        29.81S
ALEXANDRIA     FAIR      66  60  81 CALM      29.87S
SAINT CLOUD    FAIR      62  60  93 NW3       29.84R
MINNEAPOLIS    MOCLDY    71  59  65 NW15      29.81R
$$

  *****  WEATHER ACROSS SOUTH DAKOTA  *****

CITY           SKY/WX    TMP DP  RH WIND       PRES   REMARKS
SIOUX FALLS    FAIR      66  62  87 CALM      29.89S
BROOKINGS      FAIR      68  60  75 CALM      29.90S
WATERTOWN      FAIR      68  58  70 CALM      29.89R
HURON          FAIR      71  60  68 E7        29.85S
SISSETON         N/A     69  64  84 CALM      29.86R
ABERDEEN       FAIR      68  62  81 CALM      29.86S
MITCHELL       FAIR      70  63  78 E8        29.85S
PIERRE         FAIR      70  58  65 NE12      29.86R
MOBRIDGE       FAIR      70  61  73 SE7       29.83S
RAPID CITY     FAIR      65  55  70 W8        29.96R
$$

  *****  SOME WEATHER IN NEARBY STATES *****

CITY           SKY/WX    TMP DP  RH WIND       PRES   REMARKS
GLASGOW MT     FAIR      76  39  26 NE8       29.90S
GREAT FALLS MT FAIR      77  36  22 NE6       30.00S
CHEYENNE WY    FAIR      73  38  27 NW7       30.15R
SCOTTSBLUFF NE FAIR      73  47  39 NE17      30.00R
OMAHA NE       FAIR      77  62  59 CALM      29.90S
DES MOINES IA  FAIR      74  59  59 W8        29.87R
DAVENPORT IA   CLOUDY    73  64  73 W10       29.84R
CHICAGO IL     MOCLDY    77  63  61 W16G29    29.76R
EAU CLAIRE WI  CLOUDY    64  62  93 NW9       29.76R
LA CROSSE WI   CLOUDY    69  65  86 N8        29.77R
$$

  *****  SOME NATIONAL WEATHER *****

CITY           SKY/WX    TMP DP  RH WIND       PRES   REMARKS
LA GUARDIA NY  MOCLDY    75  71  87 SE6       29.97F
RALEIGH NC     MOCLDY    79  74  84 S6        29.99R
ATLANTA GA     FAIR      82  72  71 SW5       30.04R
NEW ORLEANS LA FAIR      82  77  84 S6        30.01R HX  90
OKLAHOMA CITY  FAIR      78  68  71 SE7       29.99R
ALBUQUERQUE NM FAIR      86  34  15 SW3       30.14R
SALT LAKE CITY FAIR      87  37  17 NE7       30.06F
LOS ANGELES CA FAIR      69  63  81 W15       29.96S
BOISE ID       FAIR      85  29  13 NW9       30.02F
SEATTLE WA     FAIR      74  54  49 VRB3      30.14F
$$

*** WEATHER ACROSS MANITOBA...SASKATCHEWAN AND ONTARIO ***
                ***ONTARIO***

CITY           SKY/WX    TMP DP  RH WIND       PRES   REMARKS
GERALDTON      CLOUDY    57  57 100 NE13      29.75S FOG
THUNDER BAY    MOCLDY    63  61  94 N7        29.66R
SIOUX LOOKOUT  MOCLDY    61  55  82 VRB2      29.82S
TORONTO        CLOUDY    68  66  94 E6        29.77S
BIG TROUT LK   CLOUDY    64  57  77 S3        29.78S
PICKLE LAKE    MOCLDY    61  52  72 SE5       29.83S
DRYDEN         CLEAR     61  55  82 E5        29.83R
KENORA         PTCLDY    70  55  60 NW5       29.82R
$$
                *** MANITOBA***

CITY           SKY/WX    TMP DP  RH WIND       PRES   REMARKS
BRANDON        MOCLDY    63  55  77 W7        29.85R
DAUPHIN        CLEAR     68  57  68 SW9       29.79S
ISLAND LAKE    NOT AVBL
PILOT MOUND      N/A     66  54  63 N2          N/A
THE PAS        PTCLDY    68  54  60 S3        29.75S
THOMPSON       MOCLDY    68  46  45 S2        29.68F
WINNIPEG       CLEAR     64  54  68 NW3       29.81S
LYNN LAKE      CLEAR     61  55  82 MISG      29.67S
CHURCHILL      MOCLDY    66  63  88 SE13      29.62F
GILLAM         PTCLDY    66  48  52 S6        29.68S
$$
                ***SASKATCHEWAN***

CITY           SKY/WX    TMP DP  RH WIND       PRES   REMARKS
ESTEVAN        MOCLDY    68  57  68 N8        29.88R
KINDERSLEY     MOCLDY    66  48  52 NW6       29.94S
LLOYDMINSTER   PTCLDY    66  54  63 W6        29.90S
PRINCE ALBERT  PTCLDY    66  54  63 W7        29.84S
REGINA         PTCLDY    70  45  40 W8        29.90R SMOKE
YORKTON        CLEAR     66  55  68 W6        29.85R


USA.gov is the U.S. government's official web portal to all federal, state and local government web resources and services.